GAOFEN-12 04

Last updated on Wed Sep 17 2025 00:02:31 GMT+0000 (Coordinated Universal Time)

1 57654U 23123A 25259.63317661 .00001206 00000+0 16276-3 0 9997 2 57654 97.9050 176.7700 0002054 117.1110 243.0312 14.80893547112176
UTC large
Height (km)
Speed (km/s)
/
Latitude / Longitude
Inclination (degrees)
Orbital Period (minutes)
Azimuth
Elevation
Range (km)
Doppler Factor

Next 0 passes for location: London (51.5072 / 0.1276)

Sorry there are no passes over London.